Lid_Strength_Index
8 8 9 9 9 9 9 8 8 8 7 7 6 6 6 6 5 5 5 5 6 7 7 7 7 6 6 6 6 6 6 6 10 11 10 10 11 11 10 9 9 9 9
8 9 9 9 9 9 9 8 8 8 7 7 6 6 6 5 5 5 5 5 5 7 7 7 7 6 7 7 6 7 7 7 7 10 11 11 12 12 11 11 10 10 9
9 9 9 9 9 9 9 8 8 8 8 7 7 6 6 5 4 5 5 5 5 6 6 6 7 7 7 7 7 7 7 7 8 9 11 11 11 11 12 12 12 12 12
9 9 9 9 9 8 8 8 8 8 8 8 7 7 6 6 5 5 6 6 5 5 5 6 6 6 6 7 8 7 7 8 8 10 11 12 12 12 12 13 14 14 14
10 10 9 9 9 9 8 8 9 8 8 8 8 7 7 6 5 5 6 6 6 5 5 5 6 7 8 8 7 7 7 8 9 10 11 12 13 13 13 13 14 14 14
10 10 10 10 9 9 9 9 9 9 9 8 8 8 7 7 8 8 7 7 6 6 6 6 7 10 9 9 8 8 7 7 9 9 10 11 12 12 13 13 14 14 13
11 11 11 10 10 10 10 10 10 9 9 9 9 9 8 7 9 9 9 7 7 6 6 7 8 8 9 8 9 8 9 8 7 7 9 9 11 11 12 13 13 13 13
11 11 11 11 11 11 11 10 10 10 9 9 9 9 8 8 10 10 11 7 7 7 7 7 8 8 9 8 8 8 8 8 8 7 7 8 9 10 10 10 12 13 14
11 11 11 11 12 11 11 10 10 10 10 10 10 9 9 9 11 10 9 7 8 8 8 7 7 8 10 10 8 8 9 9 8 8 7 8 9 9 10 12 13 13 13
10 10 10 11 11 11 11 11 12 11 11 11 11 10 11 9 11 10 8 8 8 9 9 8 12 8 11 10 8 10 11 10 10 10 10 9 9 10 11 9 11 12 13
12 12 11 10 10 10 10 13 12 12 12 12 12 12 11 10 10 10 9 9 9 11 11 12 11 10 10 9 8 9 9 10 10 11 11 12 12 12 11 11 11 10 12
12 12 12 12 11 11 12 13 13 13 13 13 13 13 14 12 12 11 10 9 9 11 12 12 12 10 10 9 9 9 9 10 11 11 12 12 12 13 12 12 13 13 13
12 12 13 13 13 12 12 13 13 13 13 13 13 12 14 14 13 11 11 10 11 12 14 12 11 10 10 9 9 9 11 11 11 11 11 11 11 13 13 13 13 13 13
12 13 13 13 13 13 13 13 12 13 12 13 13 12 13 14 14 14 14 13 13 14 13 13 12 12 11 12 12 10 11 11 11 10 11 12 12 13 13 13 13 13 13
12 13 13 12 13 13 14 13 13 13 11 12 12 11 12 13 13 12 13 14 13 14 14 14 13 13 14 14 13 12 12 12 11 11 11 12 12 13 13 13 13 13 13
13 13 12 13 13 13 13 13 12 12 11 11 11 11 14 12 12 12 12 12 12 13 15 14 14 13 13 13 13 12 12 12 12 12 12 12 12 12 13 13 13 13 13
12 12 12 12 12 12 12 13 14 13 12 11 11 11 11 12 12 12 11 12 12 12 14 14 14 13 13 13 12 12 12 12 12 11 12 12 12 13 13 13 13 13 13
12 12 12 12 12 12 12 12 13 13 14 14 12 12 12 11 11 11 11 12 14 14 15 14 14 13 13 13 13 12 12 12 12 12 12 12 12 13 13 13 13 13 13
12 11 11 11 11 12 12 12 12 13 13 14 13 13 12 11 11 12 12 14 14 14 14 14 14 13 13 13 12 12 12 12 12 12 12 12 12 12 12 12 12 12 13
12 12 11 11 12 12 12 13 13 13 13 14 13 13 13 13 14 14 14 14 14 13 14 14 13 13 13 13 12 12 12 12 11 11 11 11 11 11 11 11 11 11 11
12 12 11 11 12 12 12 13 13 13 13 14 14 14 13 13 14 14 14 14 13 13 13 13 12 12 12 12 11 11 11 11 11 11 11 11 11 11 11 11 11 11 11
11 11 12 12 12 12 12 12 13 13 14 15 14 13 13 14 15 15 16 16 16 15 14 14 14 14 14 13 12 11 12 12 12 11 11 11 11 11 11 11 11 11 11
11 11 12 12 12 12 12 13 13 14 14 14 14 15 15 16 17 17 18 19 19 19 18 17 17 17 17 17 17 15 15 16 15 14 13 12 11 11 11 11 11 11 11
11 11 12 12 12 12 13 14 14 15 16 16 17 18 18 19 20 21 21 22 23 23 23 22 20 20 22 23 23 22 21 20 18 18 17 16 15 12 12 12 12 11 11
11 12 12 13 13 14 14 15 16 17 18 19 20 21 22 22 23 23 23 23 24 24 25 25 24 24 25 25 26 27 25 25 26 26 26 25 24 23 21 19 14 13 13
12 13 13 14 15 16 17 18 18 19 20 21 22 23 23 24 24 24 25 25 26 26 27 27 26 26 26 26 27 25 23 21 25 26 29 28 27 27 27 25 23 21 18